Zurück zum Katalog

SL-8 DEB

AktivLEO
NORAD 21724·DEBRIS·🇷🇺 Russia

Gestartet Feb 12, 1991 von Plesetsk Cosmodrome

Loading…

Nächste Überflüge (nächste 24 Stunden)

TLE

AktuellSource: Space-Track

Epoche: Sep 14, 2026, 05:46 UTC

1 21724U 91009BZ  26257.24074814  .00000169  00000-0  16541-2 0  9992
2 21724  73.9836   2.5311 0205950 215.0656 166.7744 12.20620872557497

Verfolge SL-8 DEB in Echtzeit mit AllMySat

Download on the App Store